Weather in Rafailovići

Montenegro     42°16′49″N   18°52′55″E
temp.,
°C
wind,
m/s
gust,
m/s
humid.,
%
clouds,
%
prec.,
mm/h
press.,
hPa
HPBL,
m
18 may, tue
tue1823:00+14nne229214 0.3 101045
02:00+14nw11835 1.5 101015
05:00+12n11820 0.2 101120
08:00+15ne11740 0.3 1013182
11:00+19sw11540 0.0 10141031
14:00+18sw22591 0.0 1014932
17:00+18wsw226133 0.0 1015407
20:00+14sse117388 0.0 101427
19 may, wed
wed1923:00+12ne118526 0.0 101527
02:00+11ne228216 0.0 101529
05:00+11ne33865 0.0 101449
08:00+15ene226741 0.0 1013200
11:00+18s3552100 0.0 10141065
14:00+18ssw3462100 0.0 10131072
17:00+17sw3369100 0.0 1013697
20:00+13sw229059 0.3 1013129
20 may, thu
thu2023:00+13wnw228729 1.2 101493
02:00+11wnw33883 1.3 1013118
05:00+11wnw228741 0.0 1013141
08:00+13n1180100 0.1 1013423
11:00+15wsw21733 1.0 1013745
14:00+16wsw237116 3.6 1013778
17:00+16sw22646 1.6 1013610
20:00+13nne12750 1.8 101341
21 may, fri
fri2123:00+10nne337098 0.0 101557
02:00+10nne456883 0.0 101588
05:00+9n467272 0.0 1016142
08:00+14nne495812 0.0 10171272
11:00+16nne69531 0.0 10181408
14:00+19ne14477 0.0 10171573
17:00+19wsw025079 0.0 1016921
20:00+14wnw227714 0.0 101721
22 may, sat
sat2223:00+12ne33655 0.0 101942
02:00+10ne336778 0.0 101947
05:00+9ne33705 0.0 101848
08:00+14ene22590 0.0 1018194
11:00+18ssw115030 0.0 1018762
14:00+18sw22550 0.0 1018773
17:00+17wsw22600 0.0 1017381
20:00+14se00740 0.0 101818